Time,TemperatureF,DewpointF,PressureIn,WindDirection,WindDirectionDegrees,WindSpeedMPH,WindSpeedGustMPH,Humidity,HourlyPrecipIn,Conditions,Clouds,dailyrainin,SoftwareType,DateUTC
2013-04-08 00:04:00,32.7,30.4,27.85,ENE,60,4.0,6.0,91,0.00,,,0.11,Wunderground v.1.15,2013-04-08 05:04:00,
2013-04-08 00:10:00,32.6,30.3,27.85,East,86,4.0,4.0,91,0.00,,,0.11,Wunderground v.1.15,2013-04-08 05:10:00,
2013-04-08 00:16:00,32.6,30.5,27.86,ENE,62,4.0,6.0,92,0.00,,,0.11,Wunderground v.1.15,2013-04-08 05:16:00,
2013-04-08 00:22:00,32.5,30.4,27.86,East,100,5.0,6.0,92,0.00,,,0.11,Wunderground v.1.15,2013-04-08 05:22:00,
2013-04-08 00:28:00,32.4,30.3,27.86,East,97,6.0,9.0,92,0.00,,,0.11,Wunderground v.1.15,2013-04-08 05:28:00,
2013-04-08 00:34:00,32.4,30.3,27.86,East,81,6.0,7.0,92,0.00,,,0.11,Wunderground v.1.15,2013-04-08 05:34:00,
2013-04-08 00:40:00,32.4,30.6,27.86,East,89,5.0,7.0,93,0.00,,,0.11,Wunderground v.1.15,2013-04-08 05:40:00,
2013-04-08 00:46:00,32.4,30.6,27.86,ENE,72,5.0,9.0,93,0.00,,,0.11,Wunderground v.1.15,2013-04-08 05:46:00,
2013-04-08 00:52:00,32.4,30.6,27.86,East,82,6.0,6.0,93,0.00,,,0.11,Wunderground v.1.15,2013-04-08 05:52:00,
2013-04-08 00:58:00,32.4,30.6,27.86,NE,50,4.0,6.0,93,0.00,,,0.11,Wunderground v.1.15,2013-04-08 05:58:00,
2013-04-08 01:04:00,32.4,30.6,27.86,East,98,5.0,9.0,93,0.00,,,0.11,Wunderground v.1.15,2013-04-08 06:04:00,
2013-04-08 01:10:00,32.3,30.5,27.86,East,98,6.0,8.0,93,0.00,,,0.11,Wunderground v.1.15,2013-04-08 06:10:00,
2013-04-08 01:16:00,32.3,30.5,27.86,ENE,78,6.0,8.0,93,0.00,,,0.11,Wunderground v.1.15,2013-04-08 06:16:00,
2013-04-08 01:22:00,32.2,30.7,27.87,East,79,5.0,6.0,94,0.00,,,0.11,Wunderground v.1.15,2013-04-08 06:22:00,
2013-04-08 01:28:00,32.1,30.6,27.87,East,91,6.0,6.0,94,0.00,,,0.00,Wunderground v.1.15,2013-04-08 06:28:00,
2013-04-08 01:34:00,32.1,30.6,27.87,East,82,5.0,9.0,94,0.00,,,0.00,Wunderground v.1.15,2013-04-08 06:34:00,
2013-04-08 01:40:00,31.9,30.4,27.87,ESE,115,6.0,9.0,94,0.00,,,0.00,Wunderground v.1.15,2013-04-08 06:40:00,
2013-04-08 01:46:00,31.7,30.2,27.87,ENE,70,7.0,9.0,94,0.00,,,0.00,Wunderground v.1.15,2013-04-08 06:46:00,
2013-04-08 01:52:00,31.5,30.0,27.87,ENE,61,7.0,8.0,94,0.00,,,0.00,Wunderground v.1.15,2013-04-08 06:52:00,
2013-04-08 01:58:00,31.5,30.0,27.87,ENE,64,6.0,8.0,94,0.00,,,0.00,Wunderground v.1.15,2013-04-08 06:58:00,
2013-04-08 02:04:00,31.5,30.0,27.88,East,83,4.0,6.0,94,0.00,,,0.00,Wunderground v.1.15,2013-04-08 07:04:00,
2013-04-08 02:10:00,31.5,30.0,27.88,NNE,30,4.0,4.0,94,0.00,,,0.00,Wunderground v.1.15,2013-04-08 07:10:00,
2013-04-08 02:16:00,31.5,30.0,27.88,North,1,5.0,6.0,94,0.00,,,0.00,Wunderground v.1.15,2013-04-08 07:16:00,
2013-04-08 02:22:00,31.4,29.9,27.88,ENE,78,4.0,5.0,94,0.00,,,0.00,Wunderground v.1.15,2013-04-08 07:22:00,
2013-04-08 02:28:00,31.2,29.7,27.88,East,79,5.0,6.0,94,0.00,,,0.00,Wunderground v.1.15,2013-04-08 07:28:00,
2013-04-08 02:36:00,31.0,29.5,27.88,East,86,5.0,6.0,94,0.00,,,0.00,Wunderground v.1.15,2013-04-08 07:36:00,
2013-04-08 02:42:00,31.0,29.5,27.89,ENE,68,4.0,6.0,94,0.00,,,0.00,Wunderground v.1.15,2013-04-08 07:42:00,
2013-04-08 02:48:00,31.1,29.6,27.89,East,92,5.0,9.0,94,0.00,,,0.00,Wunderground v.1.15,2013-04-08 07:48:00,
2013-04-08 02:54:00,31.0,29.5,27.89,East,97,5.0,6.0,94,0.00,,,0.00,Wunderground v.1.15,2013-04-08 07:54:00,
2013-04-08 03:00:00,31.0,29.5,27.89,ENE,75,5.0,12.0,94,0.00,,,0.00,Wunderground v.1.15,2013-04-08 08:00:00,
2013-04-08 03:06:00,30.8,29.3,27.89,East,82,7.0,12.0,94,0.00,,,0.00,Wunderground v.1.15,2013-04-08 08:06:00,
2013-04-08 03:12:00,30.7,29.2,27.89,ENE,65,6.0,12.0,94,0.00,,,0.00,Wunderground v.1.15,2013-04-08 08:12:00,
2013-04-08 03:18:00,30.8,29.3,27.89,East,86,5.0,12.0,94,0.00,,,0.00,Wunderground v.1.15,2013-04-08 08:18:00,
2013-04-08 03:24:00,30.8,29.3,27.89,East,82,5.0,12.0,94,0.00,,,0.00,Wunderground v.1.15,2013-04-08 08:24:00,
2013-04-08 03:30:00,30.9,29.6,27.88,SE,124,5.0,5.0,95,0.00,,,0.00,Wunderground v.1.15,2013-04-08 08:30:00,
2013-04-08 03:36:00,31.0,29.7,27.88,ENE,70,4.0,12.0,95,0.00,,,0.00,Wunderground v.1.15,2013-04-08 08:36:00,
2013-04-08 03:42:00,31.1,29.8,27.88,ESE,113,3.0,12.0,95,0.00,,,0.00,Wunderground v.1.15,2013-04-08 08:42:00,
2013-04-08 03:48:00,31.3,30.0,27.88,East,96,2.0,12.0,95,0.00,,,0.00,Wunderground v.1.15,2013-04-08 08:48:00,
2013-04-08 03:56:00,31.3,30.0,27.89,East,100,2.0,12.0,95,0.00,,,0.00,Wunderground v.1.15,2013-04-08 08:56:00,
2013-04-08 04:02:00,31.4,30.1,27.89,ESE,115,3.0,5.0,95,0.00,,,0.00,Wunderground v.1.15,2013-04-08 09:02:00,
2013-04-08 04:08:00,31.4,30.1,27.89,SE,139,3.0,12.0,95,0.00,,,0.00,Wunderground v.1.15,2013-04-08 09:08:00,
2013-04-08 04:14:00,31.5,30.2,27.88,East,101,4.0,12.0,95,0.00,,,0.00,Wunderground v.1.15,2013-04-08 09:14:00,
2013-04-08 04:20:00,31.6,30.3,27.89,ENE,78,4.0,4.0,95,0.00,,,0.00,Wunderground v.1.15,2013-04-08 09:20:00,
2013-04-08 04:28:00,31.6,30.3,27.89,SSE,150,4.0,12.0,95,0.00,,,0.00,Wunderground v.1.15,2013-04-08 09:28:00,
2013-04-08 04:34:00,31.6,30.3,27.90,ESE,121,4.0,12.0,95,0.00,,,0.00,Wunderground v.1.15,2013-04-08 09:34:00,
2013-04-08 04:40:00,31.7,30.4,27.90,SE,129,4.0,4.0,95,0.00,,,0.00,Wunderground v.1.15,2013-04-08 09:40:00,
2013-04-08 04:46:00,31.7,30.4,27.91,East,96,1.0,12.0,95,0.00,,,0.00,Wunderground v.1.15,2013-04-08 09:46:00,
2013-04-08 04:52:00,31.8,30.5,27.91,East,97,0.0,12.0,95,0.00,,,0.00,Wunderground v.1.15,2013-04-08 09:52:00,
2013-04-08 04:58:00,31.9,30.6,27.91,ENE,70,0.0,12.0,95,0.00,,,0.00,Wunderground v.1.15,2013-04-08 09:58:00,
2013-04-08 05:04:00,31.9,30.6,27.91,ENE,69,0.0,12.0,95,0.00,,,0.00,Wunderground v.1.15,2013-04-08 10:04:00,
2013-04-08 05:10:00,32.0,30.7,27.91,ENE,63,1.0,12.0,95,0.00,,,0.00,Wunderground v.1.15,2013-04-08 10:10:00,
2013-04-08 05:16:00,32.0,30.7,27.91,ENE,65,2.0,12.0,95,0.00,,,0.00,Wunderground v.1.15,2013-04-08 10:16:00,
2013-04-08 05:22:00,32.0,30.7,27.91,ENE,57,2.0,12.0,95,0.00,,,0.00,Wunderground v.1.15,2013-04-08 10:22:00,
2013-04-08 05:28:00,32.1,30.8,27.91,ENE,62,2.0,12.0,95,0.00,,,0.00,Wunderground v.1.15,2013-04-08 10:28:00,
2013-04-08 05:34:00,32.1,30.8,27.91,ENE,66,2.0,12.0,95,0.00,,,0.00,Wunderground v.1.15,2013-04-08 10:34:00,
2013-04-08 05:40:00,32.0,30.7,27.91,NNE,30,3.0,12.0,95,0.00,,,0.00,Wunderground v.1.15,2013-04-08 10:40:00,
2013-04-08 05:46:00,32.0,30.7,27.92,ENE,67,3.0,12.0,95,0.00,,,0.00,Wunderground v.1.15,2013-04-08 10:46:00,
2013-04-08 05:52:00,31.8,30.5,27.92,ENE,62,4.0,12.0,95,0.00,,,0.00,Wunderground v.1.15,2013-04-08 10:52:00,
2013-04-08 05:58:00,31.3,29.8,27.92,ENE,68,6.0,12.0,94,0.00,,,0.00,Wunderground v.1.15,2013-04-08 10:58:00,
2013-04-08 06:04:00,31.2,29.7,27.92,NE,53,6.0,12.0,94,0.00,,,0.00,Wunderground v.1.15,2013-04-08 11:04:00,
2013-04-08 06:10:00,31.0,29.5,27.92,ENE,67,6.0,12.0,94,0.00,,,0.00,Wunderground v.1.15,2013-04-08 11:10:00,
2013-04-08 06:16:00,30.8,29.3,27.92,ENE,60,7.0,12.0,94,0.00,,,0.00,Wunderground v.1.15,2013-04-08 11:16:00,
2013-04-08 06:22:00,30.8,29.3,27.92,ENE,64,6.0,14.0,94,0.00,,,0.00,Wunderground v.1.15,2013-04-08 11:22:00,
2013-04-08 06:28:00,30.7,29.2,27.92,East,82,7.0,14.0,94,0.00,,,0.00,Wunderground v.1.15,2013-04-08 11:28:00,
2013-04-08 06:34:00,30.7,29.2,27.92,ENE,72,7.0,12.0,94,0.00,,,0.00,Wunderground v.1.15,2013-04-08 11:34:00,
2013-04-08 06:40:00,30.7,29.2,27.93,NE,56,5.0,12.0,94,0.00,,,0.00,Wunderground v.1.15,2013-04-08 11:40:00,
2013-04-08 06:46:00,30.7,29.2,27.93,ENE,60,5.0,12.0,94,0.00,,,0.00,Wunderground v.1.15,2013-04-08 11:46:00,
2013-04-08 06:52:00,30.7,29.4,27.94,NNE,29,5.0,12.0,95,0.00,,,0.00,Wunderground v.1.15,2013-04-08 11:52:00,
2013-04-08 06:58:00,30.8,29.5,27.94,ENE,67,5.0,12.0,95,0.00,,,0.00,Wunderground v.1.15,2013-04-08 11:58:00,
2013-04-08 07:04:00,30.8,29.5,27.94,NE,47,5.0,12.0,95,0.00,,,0.00,Wunderground v.1.15,2013-04-08 12:04:00,
2013-04-08 07:10:00,30.8,29.3,27.95,NE,45,5.0,12.0,94,0.00,,,0.00,Wunderground v.1.15,2013-04-08 12:10:00,
2013-04-08 07:16:00,30.7,29.2,27.95,ENE,60,5.0,12.0,94,0.00,,,0.00,Wunderground v.1.15,2013-04-08 12:16:00,
2013-04-08 07:22:00,30.7,29.2,27.96,ENE,70,6.0,12.0,94,0.00,,,0.00,Wunderground v.1.15,2013-04-08 12:22:00,
2013-04-08 07:28:00,30.5,29.0,27.96,ENE,60,8.0,12.0,94,0.00,,,0.00,Wunderground v.1.15,2013-04-08 12:28:00,
2013-04-08 07:34:00,30.4,28.9,27.97,NNE,28,9.0,10.0,94,0.00,,,0.00,Wunderground v.1.15,2013-04-08 12:34:00,
2013-04-08 07:40:00,30.4,28.9,27.97,ENE,57,8.0,12.0,94,0.00,,,0.00,Wunderground v.1.15,2013-04-08 12:40:00,
2013-04-08 07:48:00,30.4,28.9,27.97,East,85,7.0,12.0,94,0.00,,,0.00,Wunderground v.1.15,2013-04-08 12:48:00,
2013-04-08 07:54:00,30.4,28.9,27.97,ENE,75,7.0,12.0,94,0.00,,,0.00,Wunderground v.1.15,2013-04-08 12:54:00,
2013-04-08 08:00:00,30.4,28.9,27.97,ENE,75,8.0,8.0,94,0.00,,,0.00,Wunderground v.1.15,2013-04-08 13:00:00,
2013-04-08 08:06:00,30.3,28.8,27.98,ENE,75,10.0,12.0,94,0.00,,,0.00,Wunderground v.1.15,2013-04-08 13:06:00,
2013-04-08 08:12:00,30.4,28.9,27.98,NE,56,7.0,12.0,94,0.00,,,0.00,Wunderground v.1.15,2013-04-08 13:12:00,
2013-04-08 08:20:00,30.3,28.8,27.98,East,80,8.0,8.0,94,0.00,,,0.00,Wunderground v.1.15,2013-04-08 13:20:00,
2013-04-08 08:26:00,30.2,28.7,27.98,ENE,62,9.0,12.0,94,0.00,,,0.00,Wunderground v.1.15,2013-04-08 13:26:00,
2013-04-08 08:32:00,30.0,28.5,27.98,ENE,62,10.0,12.0,94,0.00,,,0.00,Wunderground v.1.15,2013-04-08 13:32:00,
2013-04-08 08:38:00,29.9,28.4,27.99,ENE,65,10.0,14.0,94,0.00,,,0.00,Wunderground v.1.15,2013-04-08 13:38:00,
2013-04-08 08:44:00,29.8,28.3,27.99,ENE,62,10.0,14.0,94,0.00,,,0.00,Wunderground v.1.15,2013-04-08 13:44:00,
2013-04-08 08:50:00,29.1,27.3,27.99,NE,41,12.0,16.0,93,0.00,,,0.00,Wunderground v.1.15,2013-04-08 13:50:00,
2013-04-08 08:56:00,28.5,26.7,28.00,NE,56,12.0,16.0,93,0.00,,,0.00,Wunderground v.1.15,2013-04-08 13:56:00,
2013-04-08 09:02:00,28.0,26.2,28.00,NE,43,12.0,16.0,93,0.00,,,0.00,Wunderground v.1.15,2013-04-08 14:02:00,
2013-04-08 09:08:00,27.6,25.8,28.00,ENE,58,13.0,20.0,93,0.00,,,0.00,Wunderground v.1.15,2013-04-08 14:08:00,
2013-04-08 09:14:00,27.4,25.9,28.00,East,79,12.0,15.0,94,0.00,,,0.00,Wunderground v.1.15,2013-04-08 14:14:00,
2013-04-08 09:20:00,26.4,24.7,28.01,ENE,60,13.0,15.0,93,0.00,,,0.00,Wunderground v.1.15,2013-04-08 14:20:00,
2013-04-08 09:26:00,25.5,23.8,28.01,ENE,67,16.0,16.0,93,0.00,,,0.00,Wunderground v.1.15,2013-04-08 14:26:00,
2013-04-08 09:32:00,25.1,23.4,28.02,NE,34,15.0,16.0,93,0.00,,,0.00,Wunderground v.1.15,2013-04-08 14:32:00,
2013-04-08 09:38:00,24.3,22.6,28.02,NE,41,13.0,23.0,93,0.00,,,0.00,Wunderground v.1.15,2013-04-08 14:38:00,
2013-04-08 09:44:00,23.7,22.0,28.03,ENE,75,15.0,17.0,93,0.00,,,0.00,Wunderground v.1.15,2013-04-08 14:44:00,
2013-04-08 09:50:00,23.4,21.7,28.03,NE,40,14.0,14.0,93,0.00,,,0.00,Wunderground v.1.15,2013-04-08 14:50:00,
2013-04-08 09:56:00,23.0,21.3,28.03,NNE,29,15.0,15.0,93,0.00,,,0.00,Wunderground v.1.15,2013-04-08 14:56:00,
2013-04-08 10:02:00,22.5,20.5,28.03,ENE,63,15.0,15.0,92,0.00,,,0.00,Wunderground v.1.15,2013-04-08 15:02:00,
2013-04-08 10:08:00,22.0,20.0,28.04,ENE,58,16.0,20.0,92,0.00,,,0.00,Wunderground v.1.15,2013-04-08 15:08:00,
2013-04-08 10:14:00,21.8,19.8,28.04,ENE,59,15.0,19.0,92,0.00,,,0.00,Wunderground v.1.15,2013-04-08 15:14:00,
2013-04-08 10:20:00,21.7,19.7,28.05,ENE,60,13.0,13.0,92,0.00,,,0.00,Wunderground v.1.15,2013-04-08 15:20:00,
2013-04-08 10:28:00,21.5,19.5,28.05,ENE,62,15.0,17.0,92,0.00,,,0.00,Wunderground v.1.15,2013-04-08 15:28:00,
2013-04-08 10:34:00,21.7,19.7,28.06,ENE,60,14.0,15.0,92,0.00,,,0.00,Wunderground v.1.15,2013-04-08 15:34:00,
2013-04-08 10:40:00,21.6,19.4,28.06,ENE,57,14.0,14.0,91,0.00,,,0.00,Wunderground v.1.15,2013-04-08 15:40:00,
2013-04-08 10:46:00,21.5,19.5,28.07,NE,47,14.0,14.0,92,0.00,,,0.00,Wunderground v.1.15,2013-04-08 15:46:00,
2013-04-08 10:52:00,21.3,19.1,28.07,NE,49,13.0,14.0,91,0.00,,,0.00,Wunderground v.1.15,2013-04-08 15:52:00,
2013-04-08 10:58:00,21.3,19.3,28.08,NE,46,13.0,14.0,92,0.00,,,0.00,Wunderground v.1.15,2013-04-08 15:58:00,
2013-04-08 11:04:00,21.3,19.3,28.08,ENE,64,12.0,14.0,92,0.00,,,0.00,Wunderground v.1.15,2013-04-08 16:04:00,
2013-04-08 11:10:00,21.4,19.4,28.08,NE,39,12.0,18.0,92,0.00,,,0.00,Wunderground v.1.15,2013-04-08 16:10:00,
2013-04-08 11:16:00,21.2,19.2,28.09,NNE,30,13.0,18.0,92,0.00,,,0.00,Wunderground v.1.15,2013-04-08 16:16:00,
2013-04-08 11:22:00,21.1,19.1,28.09,NE,43,12.0,14.0,92,0.00,,,0.00,Wunderground v.1.15,2013-04-08 16:22:00,
2013-04-08 11:28:00,21.0,18.8,28.10,NNE,32,12.0,21.0,91,0.00,,,0.00,Wunderground v.1.15,2013-04-08 16:28:00,
2013-04-08 11:34:00,20.8,18.6,28.11,ENE,63,12.0,12.0,91,0.00,,,0.00,Wunderground v.1.15,2013-04-08 16:34:00,
2013-04-08 11:40:00,20.8,18.6,28.11,ENE,67,10.0,12.0,91,0.00,,,0.00,Wunderground v.1.15,2013-04-08 16:40:00,
2013-04-08 11:46:00,20.8,18.6,28.12,NE,34,11.0,20.0,91,0.00,,,0.00,Wunderground v.1.15,2013-04-08 16:46:00,
2013-04-08 11:52:00,20.9,18.7,28.13,NNE,26,12.0,13.0,91,0.00,,,0.00,Wunderground v.1.15,2013-04-08 16:52:00,
2013-04-08 11:58:00,21.1,19.1,28.13,NE,46,10.0,14.0,92,0.00,,,0.00,Wunderground v.1.15,2013-04-08 16:58:00,
2013-04-08 12:04:00,21.1,18.9,28.14,NE,43,11.0,16.0,91,0.00,,,0.00,Wunderground v.1.15,2013-04-08 17:04:00,
2013-04-08 12:10:00,21.2,19.2,28.15,NE,46,11.0,11.0,92,0.00,,,0.00,Wunderground v.1.15,2013-04-08 17:10:00,
2013-04-08 12:16:00,21.6,19.6,28.15,NE,37,10.0,17.0,92,0.00,,,0.00,Wunderground v.1.15,2013-04-08 17:16:00,
2013-04-08 12:22:00,22.0,20.0,28.16,NE,56,9.0,12.0,92,0.00,,,0.00,Wunderground v.1.15,2013-04-08 17:22:00,
2013-04-08 12:28:00,21.6,19.4,28.17,North,4,8.0,16.0,91,0.00,,,0.00,Wunderground v.1.15,2013-04-08 17:28:00,
2013-04-08 12:34:00,21.7,19.7,28.17,NNE,13,8.0,10.0,92,0.00,,,0.00,Wunderground v.1.15,2013-04-08 17:34:00,
2013-04-08 12:40:00,21.5,19.3,28.17,NNW,343,9.0,15.0,91,0.00,,,0.00,Wunderground v.1.15,2013-04-08 17:40:00,
2013-04-08 12:46:00,21.0,18.5,28.17,NE,35,11.0,15.0,90,0.00,,,0.00,Wunderground v.1.15,2013-04-08 17:46:00,
2013-04-08 12:52:00,21.2,19.0,28.18,NNW,332,11.0,12.0,91,0.00,,,0.00,Wunderground v.1.15,2013-04-08 17:52:00,
2013-04-08 12:58:00,21.1,18.9,28.18,North,352,10.0,15.0,91,0.00,,,0.00,Wunderground v.1.15,2013-04-08 17:58:00,
2013-04-08 13:04:00,20.8,18.3,28.18,NNE,27,10.0,12.0,90,0.00,,,0.00,Wunderground v.1.15,2013-04-08 18:04:00,
2013-04-08 13:10:00,20.7,18.2,28.18,North,8,12.0,20.0,90,0.00,,,0.00,Wunderground v.1.15,2013-04-08 18:10:00,
2013-04-08 13:18:00,20.5,18.0,28.19,NNE,31,13.0,20.0,90,0.00,,,0.00,Wunderground v.1.15,2013-04-08 18:18:00,
2013-04-08 13:24:00,20.5,18.0,28.19,NNE,26,14.0,16.0,90,0.00,,,0.00,Wunderground v.1.15,2013-04-08 18:24:00,
2013-04-08 13:30:00,20.6,18.1,28.20,NNE,32,12.0,13.0,90,0.00,,,0.00,Wunderground v.1.15,2013-04-08 18:30:00,
2013-04-08 13:36:00,20.5,17.8,28.20,NNE,27,12.0,18.0,89,0.00,,,0.00,Wunderground v.1.15,2013-04-08 18:36:00,
2013-04-08 13:42:00,20.4,17.7,28.21,NNE,21,12.0,13.0,89,0.00,,,0.00,Wunderground v.1.15,2013-04-08 18:42:00,
2013-04-08 13:48:00,20.4,17.7,28.20,NNE,26,11.0,19.0,89,0.00,,,0.00,Wunderground v.1.15,2013-04-08 18:48:00,
2013-04-08 13:54:00,20.3,17.6,28.20,North,9,12.0,16.0,89,0.00,,,0.00,Wunderground v.1.15,2013-04-08 18:54:00,
2013-04-08 14:00:00,20.2,17.2,28.20,NE,50,13.0,13.0,88,0.00,,,0.00,Wunderground v.1.15,2013-04-08 19:00:00,
2013-04-08 14:06:00,20.5,17.8,28.20,NNW,344,13.0,14.0,89,0.00,,,0.00,Wunderground v.1.15,2013-04-08 19:06:00,
2013-04-08 14:12:00,20.6,17.3,28.20,NNE,26,11.0,13.0,87,0.00,,,0.00,Wunderground v.1.15,2013-04-08 19:12:00,
2013-04-08 14:18:00,20.3,17.0,28.21,NE,40,12.0,15.0,87,0.00,,,0.00,Wunderground v.1.15,2013-04-08 19:18:00,
2013-04-08 14:24:00,20.4,17.4,28.21,North,6,12.0,13.0,88,0.00,,,0.00,Wunderground v.1.15,2013-04-08 19:24:00,
2013-04-08 14:30:00,20.3,17.0,28.21,NNW,330,10.0,12.0,87,0.00,,,0.00,Wunderground v.1.15,2013-04-08 19:30:00,
2013-04-08 14:36:00,19.9,16.4,28.21,NNE,26,12.0,15.0,86,0.00,,,0.00,Wunderground v.1.15,2013-04-08 19:36:00,
2013-04-08 14:42:00,19.8,16.3,28.21,NE,37,12.0,17.0,86,0.00,,,0.00,Wunderground v.1.15,2013-04-08 19:42:00,
2013-04-08 14:48:00,19.7,16.5,28.22,NE,35,13.0,17.0,87,0.00,,,0.00,Wunderground v.1.15,2013-04-08 19:48:00,
2013-04-08 14:54:00,19.9,16.9,28.22,NNE,23,10.0,16.0,88,0.00,,,0.00,Wunderground v.1.15,2013-04-08 19:54:00,
2013-04-08 15:00:00,19.7,16.5,28.22,NNE,21,11.0,11.0,87,0.00,,,0.00,Wunderground v.1.15,2013-04-08 20:00:00,
2013-04-08 15:06:00,19.7,16.7,28.22,NNE,32,11.0,12.0,88,0.00,,,0.00,Wunderground v.1.15,2013-04-08 20:06:00,
2013-04-08 15:12:00,19.6,16.6,28.22,ENE,58,11.0,19.0,88,0.00,,,0.00,Wunderground v.1.15,2013-04-08 20:12:00,
2013-04-08 15:18:00,19.5,16.5,28.23,NNE,32,11.0,19.0,88,0.00,,,0.00,Wunderground v.1.15,2013-04-08 20:18:00,
2013-04-08 15:24:00,19.3,16.3,28.24,NNW,347,10.0,13.0,88,0.00,,,0.00,Wunderground v.1.15,2013-04-08 20:24:00,
2013-04-08 15:30:00,19.1,16.1,28.23,NE,47,11.0,11.0,88,0.00,,,0.00,Wunderground v.1.15,2013-04-08 20:30:00,
2013-04-08 15:36:00,19.4,16.4,28.24,NE,34,11.0,13.0,88,0.00,,,0.00,Wunderground v.1.15,2013-04-08 20:36:00,
2013-04-08 15:42:00,19.6,16.6,28.24,NNE,14,10.0,12.0,88,0.00,,,0.00,Wunderground v.1.15,2013-04-08 20:42:00,
2013-04-08 15:48:00,19.7,16.7,28.24,NNE,15,9.0,12.0,88,0.00,,,0.00,Wunderground v.1.15,2013-04-08 20:48:00,
2013-04-08 15:54:00,19.8,17.1,28.24,NNE,28,9.0,12.0,89,0.00,,,0.00,Wunderground v.1.15,2013-04-08 20:54:00,
2013-04-08 16:00:00,19.8,16.6,28.24,ENE,75,9.0,12.0,87,0.00,,,0.00,Wunderground v.1.15,2013-04-08 21:00:00,
2013-04-08 16:06:00,19.8,16.6,28.25,NNE,13,10.0,12.0,87,0.00,,,0.00,Wunderground v.1.15,2013-04-08 21:06:00,
2013-04-08 16:12:00,19.8,16.3,28.25,NNE,23,10.0,14.0,86,0.00,,,0.00,Wunderground v.1.15,2013-04-08 21:12:00,
2013-04-08 16:18:00,19.9,16.4,28.25,ENE,65,10.0,14.0,86,0.00,,,0.00,Wunderground v.1.15,2013-04-08 21:18:00,
2013-04-08 16:24:00,20.0,16.5,28.25,NNE,22,11.0,12.0,86,0.00,,,0.00,Wunderground v.1.15,2013-04-08 21:24:00,
2013-04-08 16:30:00,20.1,16.9,28.25,NE,53,11.0,11.0,87,0.00,,,0.00,Wunderground v.1.15,2013-04-08 21:30:00,
2013-04-08 16:36:00,20.5,17.2,28.24,North,359,10.0,12.0,87,0.00,,,0.00,Wunderground v.1.15,2013-04-08 21:36:00,
2013-04-08 16:42:00,20.8,17.3,28.24,North,1,9.0,19.0,86,0.00,,,0.00,Wunderground v.1.15,2013-04-08 21:42:00,
2013-04-08 16:48:00,20.7,16.6,28.25,NNW,342,11.0,19.0,84,0.00,,,0.00,Wunderground v.1.15,2013-04-08 21:48:00,
2013-04-08 16:54:00,20.6,16.0,28.26,NNE,14,12.0,14.0,82,0.00,,,0.00,Wunderground v.1.15,2013-04-08 21:54:00,
2013-04-08 17:00:00,20.6,15.7,28.26,NNE,13,13.0,13.0,81,0.00,,,0.00,Wunderground v.1.15,2013-04-08 22:00:00,
2013-04-08 17:06:00,20.8,16.2,28.26,NNE,28,11.0,13.0,82,0.00,,,0.00,Wunderground v.1.15,2013-04-08 22:06:00,
2013-04-08 17:18:00,21.0,16.6,28.27,NNE,18,9.0,12.0,83,0.00,,,0.00,Wunderground v.1.15,2013-04-08 22:18:00,
2013-04-08 17:24:00,21.0,16.6,28.27,NNE,30,10.0,13.0,83,0.00,,,0.00,Wunderground v.1.15,2013-04-08 22:24:00,
2013-04-08 17:30:00,20.8,16.5,28.27,NNE,25,10.0,10.0,83,0.00,,,0.00,Wunderground v.1.15,2013-04-08 22:30:00,
2013-04-08 17:36:00,20.9,16.8,28.27,NE,35,9.0,12.0,84,0.00,,,0.00,Wunderground v.1.15,2013-04-08 22:36:00,
2013-04-08 17:42:00,21.0,16.9,28.27,North,356,7.0,12.0,84,0.00,,,0.00,Wunderground v.1.15,2013-04-08 22:42:00,
2013-04-08 17:48:00,20.9,16.8,28.26,NNW,343,8.0,12.0,84,0.00,,,0.00,Wunderground v.1.15,2013-04-08 22:48:00,
2013-04-08 17:54:00,20.7,16.6,28.27,NE,51,9.0,15.0,84,0.00,,,0.00,Wunderground v.1.15,2013-04-08 22:54:00,
2013-04-08 18:00:00,20.8,16.7,28.28,NE,34,8.0,12.0,84,0.00,,,0.00,Wunderground v.1.15,2013-04-08 23:00:00,
2013-04-08 18:06:00,20.8,16.5,28.28,NNW,337,8.0,12.0,83,0.00,,,0.00,Wunderground v.1.15,2013-04-08 23:06:00,
2013-04-08 18:12:00,20.8,16.2,28.28,North,352,8.0,12.0,82,0.00,,,0.00,Wunderground v.1.15,2013-04-08 23:12:00,
2013-04-08 18:18:00,20.7,16.1,28.28,NW,318,7.0,15.0,82,0.00,,,0.00,Wunderground v.1.15,2013-04-08 23:18:00,
2013-04-08 18:24:00,20.6,15.7,28.28,North,354,9.0,14.0,81,0.00,,,0.00,Wunderground v.1.15,2013-04-08 23:24:00,
2013-04-08 18:32:00,20.4,15.2,28.28,NNW,336,10.0,12.0,80,0.00,,,0.00,Wunderground v.1.15,2013-04-08 23:32:00,
2013-04-08 18:38:00,20.0,14.5,28.29,ENE,68,11.0,17.0,79,0.00,,,0.00,Wunderground v.1.15,2013-04-08 23:38:00,
2013-04-08 18:44:00,19.9,14.4,28.30,NNE,13,10.0,15.0,79,0.00,,,0.00,Wunderground v.1.15,2013-04-08 23:44:00,
2013-04-08 18:50:00,19.8,14.6,28.29,NE,43,9.0,9.0,80,0.00,,,0.00,Wunderground v.1.15,2013-04-08 23:50:00,
2013-04-08 18:58:00,19.7,14.8,28.30,NNE,15,9.0,14.0,81,0.00,,,0.00,Wunderground v.1.15,2013-04-08 23:58:00,
2013-04-08 19:04:00,19.4,13.9,28.31,NNE,32,9.0,17.0,79,0.00,,,0.00,Wunderground v.1.15,2013-04-09 00:04:00,
2013-04-08 19:10:00,19.1,13.7,28.30,NNE,12,11.0,11.0,79,0.00,,,0.00,Wunderground v.1.15,2013-04-09 00:10:00,
2013-04-08 19:16:00,19.1,13.7,28.31,NNW,344,10.0,12.0,79,0.00,,,0.00,Wunderground v.1.15,2013-04-09 00:16:00,
2013-04-08 19:22:00,19.0,13.0,28.31,NNE,25,9.0,11.0,77,0.00,,,0.00,Wunderground v.1.15,2013-04-09 00:22:00,
2013-04-08 19:28:00,19.0,13.0,28.32,NNE,26,10.0,13.0,77,0.00,,,0.00,Wunderground v.1.15,2013-04-09 00:28:00,
2013-04-08 19:34:00,18.8,12.5,28.32,NE,45,8.0,12.0,76,0.00,,,0.00,Wunderground v.1.15,2013-04-09 00:34:00,
2013-04-08 19:40:00,18.6,12.3,28.33,ENE,68,8.0,8.0,76,0.00,,,0.00,Wunderground v.1.15,2013-04-09 00:40:00,
2013-04-08 19:48:00,18.4,11.8,28.33,NNE,23,9.0,14.0,75,0.00,,,0.00,Wunderground v.1.15,2013-04-09 00:48:00,
2013-04-08 19:54:00,18.2,11.9,28.33,NNE,15,9.0,12.0,76,0.00,,,0.00,Wunderground v.1.15,2013-04-09 00:54:00,
2013-04-08 20:00:00,18.2,12.2,28.33,NW,307,8.0,12.0,77,0.00,,,0.00,Wunderground v.1.15,2013-04-09 01:00:00,
2013-04-08 20:06:00,18.1,12.1,28.33,NNW,345,8.0,12.0,77,0.00,,,0.00,Wunderground v.1.15,2013-04-09 01:06:00,
2013-04-08 20:12:00,17.9,12.2,28.33,NNW,340,9.0,10.0,78,0.00,,,0.00,Wunderground v.1.15,2013-04-09 01:12:00,
2013-04-08 20:18:00,17.7,12.0,28.34,North,6,8.0,12.0,78,0.00,,,0.00,Wunderground v.1.15,2013-04-09 01:18:00,
2013-04-08 20:24:00,17.4,11.4,28.34,NNE,21,9.0,14.0,77,0.00,,,0.00,Wunderground v.1.15,2013-04-09 01:24:00,
2013-04-08 20:32:00,17.0,10.7,28.34,NNE,28,10.0,12.0,76,0.00,,,0.00,Wunderground v.1.15,2013-04-09 01:32:00,
2013-04-08 20:38:00,16.9,11.2,28.34,NNW,347,10.0,12.0,78,0.00,,,0.00,Wunderground v.1.15,2013-04-09 01:38:00,
2013-04-08 20:44:00,16.7,11.0,28.35,ENE,60,9.0,12.0,78,0.00,,,0.00,Wunderground v.1.15,2013-04-09 01:44:00,
2013-04-08 20:50:00,16.6,10.9,28.35,North,352,9.0,12.0,78,0.00,,,0.00,Wunderground v.1.15,2013-04-09 01:50:00,
2013-04-08 20:56:00,16.5,11.1,28.36,NE,55,9.0,12.0,79,0.00,,,0.00,Wunderground v.1.15,2013-04-09 01:56:00,
2013-04-08 21:02:00,16.3,10.6,28.36,NNE,33,10.0,11.0,78,0.00,,,0.00,Wunderground v.1.15,2013-04-09 02:02:00,
2013-04-08 21:08:00,16.2,10.5,28.36,NE,38,10.0,12.0,78,0.00,,,0.00,Wunderground v.1.15,2013-04-09 02:08:00,
2013-04-08 21:14:00,16.1,10.4,28.36,NNE,29,10.0,19.0,78,0.00,,,0.00,Wunderground v.1.15,2013-04-09 02:14:00,
2013-04-08 21:20:00,16.0,10.1,28.37,NNW,337,10.0,10.0,77,0.00,,,0.00,Wunderground v.1.15,2013-04-09 02:20:00,
2013-04-08 21:26:00,15.9,10.0,28.37,North,350,11.0,12.0,77,0.00,,,0.00,Wunderground v.1.15,2013-04-09 02:26:00,
2013-04-08 21:32:00,15.9,10.3,28.38,NNE,22,10.0,12.0,78,0.00,,,0.00,Wunderground v.1.15,2013-04-09 02:32:00,
2013-04-08 21:38:00,15.9,10.3,28.38,NNE,33,10.0,15.0,78,0.00,,,0.00,Wunderground v.1.15,2013-04-09 02:38:00,
2013-04-08 21:44:00,15.9,10.5,28.38,NNE,18,10.0,12.0,79,0.00,,,0.00,Wunderground v.1.15,2013-04-09 02:44:00,
2013-04-08 21:50:00,15.9,10.5,28.38,NNE,28,7.0,14.0,79,0.00,,,0.00,Wunderground v.1.15,2013-04-09 02:50:00,
2013-04-08 21:58:00,15.8,10.4,28.39,NE,44,9.0,14.0,79,0.00,,,0.00,Wunderground v.1.15,2013-04-09 02:58:00,
2013-04-08 22:04:00,15.8,10.7,28.39,North,352,9.0,12.0,80,0.00,,,0.00,Wunderground v.1.15,2013-04-09 03:04:00,
2013-04-08 22:10:00,15.8,10.4,28.40,North,354,7.0,7.0,79,0.00,,,0.00,Wunderground v.1.15,2013-04-09 03:10:00,
2013-04-08 22:18:00,15.7,10.1,28.41,North,352,8.0,12.0,78,0.00,,,0.00,Wunderground v.1.15,2013-04-09 03:18:00,
2013-04-08 22:24:00,15.7,9.8,28.41,North,356,9.0,12.0,77,0.00,,,0.00,Wunderground v.1.15,2013-04-09 03:24:00,
2013-04-08 22:30:00,15.6,9.7,28.41,North,349,9.0,12.0,77,0.00,,,0.00,Wunderground v.1.15,2013-04-09 03:30:00,
2013-04-08 22:36:00,15.5,9.6,28.42,NNE,16,8.0,12.0,77,0.00,,,0.00,Wunderground v.1.15,2013-04-09 03:36:00,
2013-04-08 22:42:00,15.4,9.5,28.42,NNW,337,9.0,12.0,77,0.00,,,0.00,Wunderground v.1.15,2013-04-09 03:42:00,
2013-04-08 22:48:00,15.2,9.6,28.41,North,3,9.0,12.0,78,0.00,,,0.00,Wunderground v.1.15,2013-04-09 03:48:00,
2013-04-08 22:54:00,15.1,9.5,28.41,NNW,335,9.0,12.0,78,0.00,,,0.00,Wunderground v.1.15,2013-04-09 03:54:00,
2013-04-08 23:00:00,14.9,9.0,28.42,NNE,13,9.0,17.0,77,0.00,,,0.00,Wunderground v.1.15,2013-04-09 04:00:00,
2013-04-08 23:04:00,14.7,8.8,28.41,NE,45,10.0,17.0,77,0.00,,,0.00,Wunderground v.1.15,2013-04-09 04:04:00,
2013-04-08 23:08:00,14.6,9.0,28.41,NNW,338,10.0,17.0,78,0.00,,,0.00,Wunderground v.1.15,2013-04-09 04:08:00,
2013-04-08 23:10:00,14.6,9.3,28.41,North,10,9.0,9.0,79,0.00,,,0.00,Wunderground v.1.15,2013-04-09 04:10:00,
2013-04-08 23:16:00,14.5,9.2,28.42,NNW,343,8.0,14.0,79,0.00,,,0.00,Wunderground v.1.15,2013-04-09 04:16:00,
2013-04-08 23:22:00,14.5,9.2,28.42,NE,56,9.0,15.0,79,0.00,,,0.00,Wunderground v.1.15,2013-04-09 04:22:00,
2013-04-08 23:28:00,14.5,8.6,28.42,NNE,28,10.0,20.0,77,0.00,,,0.00,Wunderground v.1.15,2013-04-09 04:28:00,
2013-04-08 23:34:00,14.4,8.8,28.42,NE,48,10.0,12.0,78,0.00,,,0.00,Wunderground v.1.15,2013-04-09 04:34:00,
2013-04-08 23:40:00,14.5,9.2,28.42,NNE,18,8.0,8.0,79,0.00,,,0.00,Wunderground v.1.15,2013-04-09 04:40:00,
2013-04-08 23:46:00,14.4,8.8,28.42,NE,43,7.0,12.0,78,0.00,,,0.00,Wunderground v.1.15,2013-04-09 04:46:00,
2013-04-08 23:52:00,14.4,8.8,28.41,NE,39,9.0,9.0,78,0.00,,,0.00,Wunderground v.1.15,2013-04-09 04:52:00,
2013-04-08 23:58:00,14.4,8.8,28.41,NNE,32,10.0,12.0,78,0.00,,,0.00,Wunderground v.1.15,2013-04-09 04:58:00,